{"data":{"norad_id":68987,"intl_designator":"2026-100H","name":"IRIDE-MS2-HEO-15","alt_names":[],"object_type":"PAYLOAD","status":"ACTIVE","operator":null,"country":"IT","launch_date":"2026-05-03","launch_site_code":"AFWTR","launch_vehicle":null,"mission":null,"orbit_class":"UNKNOWN","rcs_meters":null,"size_class":null,"mass_kg":null,"dimensions":null,"purposes":[],"wikipedia_slug":null,"has_3d_model":false,"image_url":null,"decayed_at":null,"tle_current":{"epoch":"2026-05-25T03:11:43.130976Z","epoch_age_seconds":73987,"freshness":"FRESH","line1":"1 68987U 26100H   26145.13313809  .00001417  00000+0  14622-3 0  9993","line2":"2 68987  97.7364  43.0144 0001509 146.2450 213.8865 14.91724961  3267","mean_motion":14.91724961,"eccentricity":0.0001509,"inclination_deg":97.7364,"raan_deg":43.0144,"arg_perigee_deg":146.245,"mean_anomaly_deg":213.8865,"bstar":0.00014622,"rev_number":326,"period_min":96.532540357485,"perigee_km":591.50488108282,"apogee_km":593.60863645922,"semimajor_km":6970.693758771,"source":"CELESTRAK","updated_at":"2026-05-25T13:38:08.808321Z"}}}